Regional Weather Roundup
Issued by NWS Newport/Morehead, NC

Current Version | Previous Version | Graphics & Text | Print | Product List | Glossary Off
Versions: 1 2 3 4 5 6 7 8 9 10 11 12 13 14 15 16 17 18 19 20 21 22 23 24 25 26 27 28 29 30 31 32 33 34 35 36 37 38 39 40 41 42 43 44 45 46 47 48 49 50

000
ASUS42 KMHX 030125
RWRMHX
WEATHER ROUNDUP FOR EASTERN NORTH CAROLINA
NATIONAL WEATHER SERVICE NEWPORT/MOREHEAD CITY NC
900 PM EDT TUE JUN 02 2015

NOTE: "FAIR" INDICATES FEW OR NO CLOUDS BELOW 12,000 FEET
WITH NO SIGNIFICANT WEATHER AND/OR OBSTRUCTIONS TO VISIBILITY

NCZ015>017-031-032-045>047-102-103-030200-
NORTH COAST

CITY           SKY/WX    TMP DP  RH WIND       PRES   REMARKS
EDENTON        CLOUDY    70  68  93 CALM      30.00S
ELIZABETH CITY MOCLDY    69  68  96 NW5       30.01R
KITTY HAWK       N/A     69  68  97 CALM      29.98S
MANTEO         PTCLDY    69  67  94 CALM      30.00S

$$

NCZ045>047-081-094-103-104-030200-
CENTRAL COAST

CITY           SKY/WX    TMP DP  RH WIND       PRES   REMARKS
FRISCO         PTCLDY    73  67  81 E3        30.00R
SWANQUARTER      N/A     70 N/A N/A CALM      29.97S

$$

NCZ095-097-098-100-101-030200-
SOUTHERN COAST

CITY           SKY/WX    TMP DP  RH WIND       PRES   REMARKS
BEAUFORT       MOCLDY    76  71  85 SE3       29.99R
CEDAR ISLAND     N/A     75 N/A N/A E7        30.03S
JACKSONVILLE   CLOUDY    71  68  90 NE3       29.99R
PINEY ISLAND   MOCLDY   N/A N/A N/A E5        29.99S
WILMINGTON     CLOUDY    75  71  87 S3        29.99R


$$

NCZ011>013-027>030-043-044-078>080-089-090>093-098-030200-
COASTAL PLAIN

CITY           SKY/WX    TMP DP  RH WIND       PRES   REMARKS
AHOSKIE        RAIN      69  67  96 E3        30.02R
CLINTON        DRIZZLE   72  71  99 CALM      30.00S
ELIZABETHTOWN  CLOUDY    73  72  95 CALM      29.99S
GOLDSBORO      CLOUDY    72  71  96 CALM      29.97S
GREENVILLE     CLOUDY    72  70  94 CALM      30.02R
HAVELOCK       MOCLDY    73  68  84 NE3       30.00R
KENANSVILLE    CLOUDY    71  69  95 CALM      30.00F FOG
KINSTON        NOT AVBL
NEW BERN       MOCLDY    71  69  93 CALM      30.01R
RICHLANDS      CLOUDY    70  64  83 CALM      30.00S
ROCKY MOUNT    CLOUDY    71  69  93 S3        30.01R
WASHINGTON     CLOUDY    71  70  96 E3        30.00F
WHITEVILLE     CLOUDY    73  72  94 CALM      29.98S

$$

AMZ130-135-150-152-154-156-158-170-250-252-270-ANZ085-086-088-633-658-670-030200-
MARINE OBSERVATIONS

STATION/POSITION TIME  TEMP    WIND        PRES    WAVE   SWELL
                       AIR SEA DIR/SP/G            HT/PER HT/PER
                 (UTC) (F)     (DEG/KT/KT) (MB)    (FT/S) (FT/S)
CHESAPEAKE LIGHT 0100   66      30/ 21/ 22 1016.6
64 E VA BEACH    0050   72 73  270/  2/  2 1015.0    3/ 8   3/ 8
DUCK             0100   68 58  160/  5/  5 1014.8
2 E DUCK         0011      65                N/A     2/ 8
OREGON INLET     0100   71 82   30/  2/  3 1015.7
13E OREGON INLT  0100      77                N/A     2/ 8
HATTERAS CG      0100   77 80  160/  2/  3 1015.3
DIAMOND BUOY     0050   78 81  230/  6/  8 1015.7    3/ 8   2/ 8
CAPE LOOKOUT     0100   77     150/  7/  7 1015.2
BEAUFORT LAB     0100   77 79  180/  4/  6 1014.7
30 SE NEW RVR IN NOT AVBL
27 SE WRIGHTSVLE 0100      78  190/  8/  8   N/A
5 SE WRIGHTSVLE  0008   78 79  170/ 10/ 12 1014.9
225 S CAPE HAT   0050   78 78  160/  6/  8 1016.6    3/ 8   3/ 8
41 SE CHARLESTON 0050   79 81  180/  8/  8 1014.5    2/ 9   2/ 9

$$


USA.gov is the U.S. government's official web portal to all federal, state and local government web resources and services.